FW3135 Weather Reports


Display with metric or nautical units.
time (UTC)temp
F
wind
direction
speed
MPH
gust
MPH
rain 1hr
in
rain 24hr
in
rain mn
in
humidity
%
barometer
mb
20260903162823 97 254 3.0 4.0 0.00 0.00 0.00 30 1019.2
20260903162341 96 360 2.0 4.0 0.00 0.00 0.00 32 1019.2
20260903161815 96 360 3.0 4.0 0.00 0.00 0.00 31 1019.3
20260903161328 96 360 3.0 4.0 0.00 0.00 0.00 31 1019.3
20260903160829 97 262 3.0 4.0 0.00 0.00 0.00 31 1019.4
20260903160320 97 257 2.0 4.0 0.00 0.00 0.00 32 1019.4
20260903155819 96 360 3.0 4.0 0.00 0.00 0.00 32 1019.5
20260903155338 96 360 2.0 4.0 0.00 0.00 0.00 33 1019.6
20260903154815 96 360 2.0 4.0 0.00 0.00 0.00 33 1019.6
20260903154326 96 254 1.0 6.0 0.00 0.00 0.00 33 1019.6
20260903153818 95 360 3.0 6.0 0.00 0.00 0.00 33 1019.7
20260903153319 95 266 1.0 3.0 0.00 0.00 0.00 35 1019.7
20260903152833 93 360 1.0 4.0 0.00 0.00 0.00 36 1019.7
20260903152332 93 311 2.0 5.0 0.00 0.00 0.00 36 1019.8
20260903151856 92 360 3.0 5.0 0.00 0.00 0.00 37 1019.8
20260903151330 91 251 4.0 5.0 0.00 0.00 0.00 38 1019.9
20260903150824 91 360 4.0 5.0 0.00 0.00 0.00 38 1019.8
20260903150323 91 256 3.0 5.0 0.00 0.00 0.00 39 1019.9
20260903145833 92 250 4.0 5.0 0.00 0.00 0.00 36 1019.9
20260903145328 93 360 2.0 4.0 0.00 0.00 0.00 39 1020.0
20260903144821 92 237 2.0 4.0 0.00 0.00 0.00 38 1020.0
20260903144315 91 243 2.0 3.0 0.00 0.00 0.00 40 1020.1
20260903143816 90 242 2.0 4.0 0.00 0.00 0.00 42 1020.2
20260903143331 90 256 2.0 4.0 0.00 0.00 0.00 40 1020.2
20260903142835 90 254 2.0 3.0 0.00 0.00 0.00 46 1020.3
20260903142332 90 240 2.0 3.0 0.00 0.00 0.00 53 1020.4
20260903141831 91 249 2.0 3.0 0.00 0.00 0.00 50 1020.5
20260903141353 91 238 2.0 3.0 0.00 0.00 0.00 48 1020.4
20260903140829 91 243 1.0 3.0 0.00 0.00 0.00 47 1020.6
20260903140346 89 243 0.0 3.0 0.00 0.00 0.00 42 1020.6
20260903135822 89 243 2.0 3.0 0.00 0.00 0.00 45 1020.8
20260903135314 89 360 1.0 3.0 0.00 0.00 0.00 52 1020.7
20260903134838 89 242 1.0 3.0 0.00 0.00 0.00 52 1020.7
20260903134341 89 243 1.0 2.0 0.00 0.00 0.00 47 1020.6
20260903133816 89 242 0.0 3.0 0.00 0.00 0.00 48 1020.8
20260903133331 89 245 1.0 3.0 0.00 0.00 0.00 49 1020.8
20260903132832 88 245 2.0 3.0 0.00 0.00 0.00 45 1020.9
20260903132321 88 239 2.0 3.0 0.00 0.00 0.00 47 1020.9
20260903131815 87 239 2.0 3.0 0.00 0.00 0.00 52 1021.0
20260903131327 87 240 2.0 4.0 0.00 0.00 0.00 50 1021.1
20260903130822 86 238 2.0 5.0 0.00 0.00 0.00 48 1021.1
20260903130346 85 240 2.0 5.0 0.00 0.00 0.00 50 1021.1
20260903125817 84 254 3.0 4.0 0.00 0.00 0.00 52 1021.1
20260903125351 83 250 3.0 6.0 0.00 0.00 0.00 53 1021.1
20260903124817 82 360 4.0 6.0 0.00 0.00 0.00 55 1021.4
20260903124341 82 360 3.0 7.0 0.00 0.00 0.00 57 1021.4
20260903123823 81 360 3.0 6.0 0.00 0.00 0.00 59 1021.4
20260903123318 80 360 3.0 6.0 0.00 0.00 0.00 62 1021.4
20260903122820 80 360 2.0 5.0 0.00 0.00 0.00 61 1021.4
20260903122317 80 276 3.0 6.0 0.00 0.00 0.00 63 1021.4
20260903121841 80 285 3.0 6.0 0.00 0.00 0.00 62 1021.4
20260903121315 80 265 4.0 5.0 0.00 0.00 0.00 62 1021.4
20260903120836 80 256 3.0 4.0 0.00 0.00 0.00 61 1021.4
20260903120333 80 252 2.0 4.0 0.00 0.00 0.00 62 1021.4
20260903115833 80 256 3.0 4.0 0.00 0.00 0.00 63 1021.5
20260903115329 79 360 2.0 4.0 0.00 0.00 0.00 64 1021.5
20260903114828 79 254 3.0 4.0 0.00 0.00 0.00 64 1021.7
20260903114325 78 360 3.0 6.0 0.00 0.00 0.00 66 1021.8
20260903113822 78 255 3.0 6.0 0.00 0.00 0.00 66 1021.9
20260903113319 79 264 3.0 4.0 0.00 0.00 0.00 66 1022.0
20260903112816 79 239 2.0 3.0 0.00 0.00 0.00 64 1022.0
20260903112340 78 235 2.0 3.0 0.00 0.00 0.00 65 1022.0
20260903111816 78 226 2.0 3.0 0.00 0.00 0.00 65 1022.0
20260903111330 78 225 1.0 3.0 0.00 0.00 0.00 66 1022.1
20260903110814 78 230 2.0 3.0 0.00 0.00 0.00 66 1022.0
20260903110329 78 238 2.0 3.0 0.00 0.00 0.00 68 1022.1
20260903105828 77 240 0.0 2.0 0.00 0.00 0.00 69 1022.1
20260903105342 76 241 1.0 2.0 0.00 0.00 0.00 70 1022.2
20260903104829 76 242 1.0 3.0 0.00 0.00 0.00 70 1022.3
20260903104328 75 242 1.0 3.0 0.00 0.00 0.00 71 1022.4
20260903103821 74 360 2.0 4.0 0.00 0.00 0.00 72 1022.3
20260903103322 74 261 3.0 4.0 0.00 0.00 0.00 71 1022.4
20260903102818 74 360 2.0 4.0 0.00 0.00 0.00 71 1022.3
20260903102315 74 254 2.0 3.0 0.00 0.00 0.00 72 1022.3
20260903101830 73 254 2.0 3.0 0.00 0.00 0.00 73 1022.3
20260903101344 73 265 2.0 3.0 0.00 0.00 0.00 73 1022.3
20260903100823 72 266 2.0 5.0 0.00 0.00 0.00 74 1022.2
20260903100319 72 360 3.0 5.0 0.00 0.00 0.00 73 1022.3
20260903095821 72 255 3.0 4.0 0.00 0.00 0.00 73 1022.3
20260903095317 72 261 3.0 5.0 0.00 0.00 0.00 73 1022.2
20260903094842 72 360 3.0 5.0 0.00 0.00 0.00 73 1022.2
20260903094344 72 263 3.0 3.0 0.00 0.00 0.00 73 1022.0
20260903093841 72 360 2.0 4.0 0.00 0.00 0.00 74 1022.1
20260903093323 71 360 3.0 4.0 0.00 0.00 0.00 74 1022.2
20260903092815 71 263 2.0 5.0 0.00 0.00 0.00 74 1022.1
20260903092342 71 268 3.0 5.0 0.00 0.00 0.00 74 1022.0
20260903091814 71 360 3.0 4.0 0.00 0.00 0.00 73 1022.1
20260903091334 71 265 2.0 4.0 0.00 0.00 0.00 74 1022.1
20260903090835 71 360 2.0 4.0 0.00 0.00 0.00 75 1021.9
20260903090320 70 360 2.0 4.0 0.00 0.00 0.00 75 1021.8
20260903085851 70 265 3.0 4.0 0.00 0.00 0.00 74 1021.9
20260903085326 71 360 3.0 4.0 0.00 0.00 0.00 74 1021.7
20260903084834 71 262 2.0 3.0 0.00 0.00 0.00 74 1021.7
20260903084335 71 261 0.0 2.0 0.00 0.00 0.00 75 1021.7
20260903083829 71 261 0.0 0.0 0.00 0.00 0.00 75 1021.6
20260903083333 71 261 0.0 0.0 0.00 0.00 0.00 75 1021.5
20260903082850 71 261 0.0 1.0 0.00 0.00 0.00 76 1021.6
20260903082338 71 261 0.0 3.0 0.00 0.00 0.00 76 1021.7
20260903081901 71 261 1.0 3.0 0.00 0.00 0.00 76 1021.7
20260903081318 71 261 0.0 3.0 0.00 0.00 0.00 76 1021.7
20260903080839 70 261 1.0 3.0 0.00 0.00 0.00 75 1021.8
20260903080327 71 290 0.0 2.0 0.00 0.00 0.00 75 1021.7
20260903075842 71 292 1.0 3.0 0.00 0.00 0.00 74 1021.7
20260903075322 71 290 1.0 3.0 0.00 0.00 0.00 73 1021.7
20260903074822 71 286 2.0 3.0 0.00 0.00 0.00 72 1021.7
20260903074334 72 313 1.0 2.0 0.00 0.00 0.00 72 1021.6
20260903073851 72 313 0.0 1.0 0.00 0.00 0.00 71 1021.7
20260903073325 72 314 0.0 3.0 0.00 0.00 0.00 71 1021.7
20260903072830 72 314 0.0 3.0 0.00 0.00 0.00 70 1021.6
20260903072349 73 97 0.0 1.0 0.00 0.00 0.00 69 1021.6
20260903071831 72 97 0.0 1.0 0.00 0.00 0.00 70 1021.6
20260903071323 72 97 0.0 1.0 0.00 0.00 0.00 70 1021.5
20260903070850 72 97 0.0 1.0 0.00 0.00 0.00 70 1021.4
20260903070326 71 97 0.0 1.0 0.00 0.00 0.00 70 1021.3
20260903065835 71 97 0.0 1.0 0.00 0.00 0.00 71 1021.4
20260903065316 70 97 0.0 3.0 0.00 0.00 0.00 72 1021.4
20260903064815 70 97 1.0 3.0 0.00 0.00 0.00 72 1021.4
20260903064329 70 94 1.0 3.0 0.00 0.00 0.00 72 1021.4
20260903063832 70 91 0.0 1.0 0.00 0.00 0.00 72 1021.4
20260903063315 69 91 0.0 3.0 0.00 0.00 0.00 73 1021.2
20260903062839 69 91 1.0 3.0 0.00 0.00 0.00 74 1021.2
20260903062332 69 89 0.0 0.0 0.00 0.00 0.00 74 1021.1
20260903061835 69 89 0.0 0.0 0.00 0.00 0.00 74 1021.2
20260903061329 69 89 0.0 0.0 0.00 0.00 0.00 74 1021.1
20260903060826 69 89 0.0 2.0 0.00 0.00 0.00 74 1021.2
20260903060350 69 89 0.0 2.0 0.00 0.00 0.00 74 1021.1
20260903055829 69 88 0.0 2.0 0.00 0.00 0.00 74 1021.1
20260903055329 69 87 0.0 3.0 0.00 0.00 0.00 74 1021.1
20260903054832 69 89 1.0 3.0 0.00 0.00 0.00 74 1021.1
20260903054317 69 88 1.0 3.0 0.00 0.00 0.00 74 1021.1
20260903053837 68 75 1.0 3.0 0.00 0.00 0.00 75 1021.0
20260903053318 68 123 1.0 2.0 0.00 0.00 0.00 75 1021.0
20260903052833 68 123 1.0 2.0 0.00 0.00 0.00 75 1021.0
20260903052342 68 123 0.0 0.0 0.00 0.00 0.00 74 1021.1
20260903051840 69 123 0.0 1.0 0.00 0.00 0.00 74 1021.1
20260903051326 69 123 0.0 3.0 0.00 0.00 0.00 74 1021.0
20260903050817 68 123 1.0 3.0 0.00 0.00 0.00 74 1021.0
20260903050348 68 130 1.0 2.0 0.00 0.00 0.00 75 1021.0
20260903045845 68 132 1.0 2.0 0.00 0.00 0.00 75 1021.0
20260903045319 68 132 0.0 3.0 0.00 0.00 0.00 75 1021.0
20260903044854 69 132 0.0 3.0 0.00 0.00 0.00 75 1021.0
20260903044338 69 128 2.0 3.0 0.00 0.00 0.00 75 1020.9
20260903043830 69 96 0.0 0.0 0.00 0.00 0.00 75 1020.9
20260903043322 69 96 0.0 0.0 0.00 0.00 0.00 74 1020.7
20260903042852 69 96 0.0 0.0 0.00 0.00 0.00 74 1020.6
20260903042331 69 96 0.0 0.0 0.00 0.00 0.00 74 1020.7
20260903041836 69 96 0.0 0.0 0.00 0.00 0.00 74 1020.7
20260903041326 69 96 0.0 0.0 0.00 0.00 0.00 74 1020.7
20260903040824 70 96 0.0 0.0 0.00 0.00 0.00 73 1020.7
20260903040329 70 96 0.0 0.0 0.00 0.00 0.00 73 1020.8
20260903035827 69 96 0.0 0.0 0.00 0.00 0.00 72 1020.8
20260903035334 69 96 0.0 0.0 0.00 0.00 0.00 73 1020.8
20260903034823 69 96 0.0 1.0 0.00 0.00 0.00 74 1020.8
20260903034333 69 96 0.0 1.0 0.00 0.00 0.00 74 1020.8
20260903033835 70 96 0.0 0.0 0.00 0.00 0.00 74 1020.9
20260903033331 70 96 0.0 0.0 0.00 0.00 0.00 74 1020.9
20260903032822 70 96 0.0 1.0 0.00 0.00 0.00 73 1021.0
20260903032334 70 96 0.0 0.0 0.00 0.00 0.00 73 1020.9
20260903031834 70 96 0.0 1.0 0.00 0.00 0.00 72 1020.9
20260903031331 71 96 0.0 1.0 0.00 0.00 0.00 71 1020.9
20260903030830 71 96 0.0 0.0 0.00 0.00 0.00 70 1020.9
20260903030317 71 96 0.0 0.0 0.00 0.00 0.00 69 1020.9
20260903025821 72 96 0.0 1.0 0.00 0.00 0.00 69 1021.0
20260903025341 72 96 0.0 3.0 0.00 0.00 0.00 67 1021.0
20260903024815 72 96 0.0 3.0 0.00 0.00 0.00 66 1021.1
20260903024318 72 100 1.0 3.0 0.00 0.00 0.00 65 1021.0
20260903023820 72 101 1.0 3.0 0.00 0.00 0.00 65 1021.1
20260903023320 72 92 0.0 3.0 0.00 0.00 0.00 65 1021.0
20260903022828 72 92 0.0 3.0 0.00 0.00 0.00 65 1021.0
20260903022329 73 92 1.0 3.0 0.00 0.00 0.00 65 1020.9
20260903021824 73 94 1.0 3.0 0.00 0.00 0.00 64 1021.0
20260903021333 73 142 1.0 2.0 0.00 0.00 0.00 64 1021.0
20260903020825 73 231 0.0 0.0 0.00 0.00 0.00 65 1021.0
20260903020346 73 232 0.0 0.0 0.00 0.00 0.00 65 1020.9
20260903015829 73 232 0.0 3.0 0.00 0.00 0.00 64 1021.0
20260903015333 72 245 0.0 3.0 0.00 0.00 0.00 66 1020.8
20260903014847 72 248 0.0 3.0 0.00 0.00 0.00 67 1020.8
20260903014320 72 248 0.0 3.0 0.00 0.00 0.00 68 1020.9
20260903013820 73 284 0.0 3.0 0.00 0.00 0.00 66 1020.8
20260903013314 72 342 0.0 3.0 0.00 0.00 0.00 66 1020.8
20260903012827 72 102 0.0 3.0 0.00 0.00 0.00 67 1020.8
20260903012325 72 161 0.0 0.0 0.00 0.00 0.00 68 1020.9
20260903011822 72 161 0.0 0.0 0.00 0.00 0.00 68 1020.9
20260903011320 72 161 0.0 0.0 0.00 0.00 0.00 68 1021.0
20260903010816 72 161 0.0 0.0 0.00 0.00 0.00 68 1021.0
20260903010340 72 161 0.0 0.0 0.00 0.00 0.00 68 1021.1
20260903005816 72 161 0.0 0.0 0.00 0.00 0.00 69 1021.2
20260903005326 72 161 0.0 0.0 0.00 0.00 0.00 68 1021.2
20260903004831 72 161 0.0 0.0 0.00 0.00 0.00 68 1021.3
20260903004343 72 161 0.0 0.0 0.00 0.00 0.00 68 1021.3
20260903003827 73 161 0.0 0.0 0.00 0.00 0.00 68 1021.4
20260903003322 73 161 0.0 0.0 0.00 0.00 0.00 67 1021.4
20260903002833 73 161 0.0 0.0 0.00 0.00 0.00 68 1021.5
20260903002355 73 161 0.0 2.0 0.00 0.00 0.00 66 1021.5
20260903001831 73 161 0.0 2.0 0.00 0.00 0.00 66 1021.4
20260903001325 73 165 0.0 5.0 0.00 0.00 0.00 66 1021.4
20260903000818 74 165 3.0 5.0 0.00 0.00 0.00 65 1021.4
20260903000322 74 157 1.0 2.0 0.00 0.00 0.00 64 1021.5
20260902235814 74 185 0.0 0.0 0.00 0.00 0.00 64 1021.4
20260902235315 74 185 0.0 0.0 0.00 0.00 0.00 63 1021.4
20260902234824 75 185 0.0 1.0 0.00 0.00 0.00 63 1021.5
20260902234315 75 185 0.0 3.0 0.00 0.00 0.00 62 1021.4
20260902233816 75 185 1.0 5.0 0.00 0.00 0.00 62 1021.4
20260902233326 76 183 3.0 9.0 0.00 0.00 0.00 61 1021.4
20260902232830 76 360 4.0 11.0 0.00 0.00 0.00 60 1021.2
20260902232323 76 98 5.0 12.0 0.00 0.00 0.00 60 1021.2
20260902231818 76 360 5.0 12.0 0.00 0.00 0.00 60 1021.2
20260902231321 76 80 7.0 12.0 0.00 0.00 0.00 60 1021.2
20260902230814 76 64 7.0 14.0 0.00 0.00 0.00 59 1021.1
20260902230338 76 346 6.0 13.0 0.00 0.00 0.00 59 1021.1
20260902225840 76 49 8.0 13.0 0.00 0.00 0.00 60 1021.1
20260902225316 76 341 6.0 15.0 0.00 0.00 0.00 60 1021.2
20260902224818 76 67 7.0 15.0 0.00 0.00 0.00 60 1021.2
20260902224318 76 50 7.0 14.0 0.00 0.00 0.00 60 1021.1
20260902223832 76 39 7.0 13.0 0.00 0.00 0.00 60 1021.1
20260902223330 76 96 8.0 16.0 0.00 0.00 0.00 60 1021.1
20260902222823 76 344 7.0 16.0 0.00 0.00 0.00 60 1021.2
20260902222318 76 360 7.0 17.0 0.00 0.00 0.00 61 1021.1
20260902221831 76 42 7.0 17.0 0.00 0.00 0.00 61 1021.1
20260902221350 76 360 8.0 13.0 0.00 0.00 0.00 61 1021.3
20260902220820 76 71 7.0 15.0 0.00 0.00 0.00 61 1021.2
20260902220317 76 82 6.0 16.0 0.00 0.00 0.00 61 1021.2
20260902215832 76 53 8.0 16.0 0.00 0.00 0.00 61 1021.1
20260902215353 76 360 7.0 18.0 0.00 0.00 0.00 62 1021.2
20260902214822 76 55 8.0 16.0 0.00 0.00 0.00 62 1021.1
20260902214314 76 32 7.0 15.0 0.00 0.00 0.00 62 1021.3
20260902213836 76 57 8.0 15.0 0.00 0.00 0.00 62 1021.2
20260902213350 75 346 7.0 17.0 0.00 0.00 0.00 63 1021.2
20260902212903 75 40 7.0 17.0 0.00 0.00 0.00 63 1021.1
20260902212327 75 42 7.0 16.0 0.00 0.00 0.00 64 1021.2
20260902211857 75 63 7.0 15.0 0.00 0.00 0.00 64 1021.2
20260902211325 75 37 6.0 17.0 0.00 0.00 0.00 65 1021.2
20260902210829 75 50 6.0 17.0 0.00 0.00 0.00 65 1021.3
20260902210332 75 33 6.0 16.0 0.00 0.00 0.00 65 1021.2
20260902205817 75 92 7.0 16.0 0.00 0.00 0.00 65 1021.3
20260902205325 75 325 7.0 16.0 0.00 0.00 0.00 65 1021.1
20260902204821 75 355 7.0 17.0 0.00 0.00 0.00 66 1021.2
20260902204318 75 55 8.0 17.0 0.00 0.00 0.00 65 1021.2
20260902203836 76 360 7.0 16.0 0.00 0.00 0.00 65 1021.1
20260902203329 76 52 8.0 17.0 0.00 0.00 0.00 65 1021.0
20260902202826 76 39 8.0 19.0 0.00 0.00 0.00 65 1021.0
20260902202328 76 44 9.0 19.0 0.00 0.00 0.00 65 1021.0
20260902201827 76 360 8.0 17.0 0.00 0.00 0.00 66 1021.0
20260902201322 76 46 11.0 17.0 0.00 0.00 0.00 67 1020.9
20260902200847 76 355 8.0 15.0 0.00 0.00 0.00 67 1020.7
20260902200338 76 79 7.0 14.0 0.00 0.00 0.00 68 1020.7
20260902195817 76 298 7.0 17.0 0.00 0.00 0.00 68 1020.6
20260902195340 76 348 8.0 17.0 0.00 0.00 0.00 69 1020.7
20260902194832 76 63 10.0 16.0 0.00 0.00 0.00 69 1020.7
20260902194335 77 344 8.0 15.0 0.00 0.00 0.00 70 1020.6
20260902193831 77 38 6.0 15.0 0.00 0.00 0.00 70 1020.5
20260902193351 77 57 8.0 15.0 0.00 0.00 0.00 71 1020.5
20260902192817 77 98 8.0 15.0 0.00 0.00 0.00 71 1020.4
20260902192320 77 355 7.0 16.0 0.00 0.00 0.00 70 1020.4
20260902191859 77 51 8.0 17.0 0.00 0.00 0.00 70 1020.3
20260902191325 78 360 9.0 15.0 0.00 0.00 0.00 69 1020.5
20260902190846 78 355 6.0 15.0 0.00 0.00 0.00 68 1020.5
20260902190321 79 75 7.0 15.0 0.00 0.00 0.00 67 1020.5
20260902185821 79 360 5.0 12.0 0.00 0.00 0.00 66 1020.5
20260902185320 79 42 4.0 11.0 0.00 0.00 0.00 65 1020.5
20260902184831 80 329 4.0 13.0 0.00 0.00 0.00 65 1020.6
20260902184334 80 57 8.0 13.0 0.00 0.00 0.00 63 1020.5
20260902183827 81 42 6.0 13.0 0.00 0.00 0.00 62 1020.6
20260902183321 81 55 6.0 11.0 0.00 0.00 0.00 61 1020.8
20260902182825 81 42 4.0 11.0 0.00 0.00 0.00 61 1020.7
20260902182322 82 76 5.0 15.0 0.00 0.00 0.00 61 1020.8
20260902181819 82 360 7.0 15.0 0.00 0.00 0.00 60 1020.7
20260902181322 82 31 7.0 13.0 0.00 0.00 0.00 61 1020.7
20260902180817 82 335 7.0 14.0 0.00 0.00 0.00 61 1020.7
20260902180313 82 52 6.0 15.0 0.00 0.00 0.00 61 1020.8
20260902175837 82 40 7.0 14.0 0.00 0.00 0.00 61 1020.7
20260902175331 83 44 7.0 12.0 0.00 0.00 0.00 60 1020.7
20260902174831 83 35 4.0 11.0 0.00 0.00 0.00 61 1020.7
20260902174327 83 40 5.0 12.0 0.00 0.00 0.00 61 1020.8
20260902173829 83 48 5.0 13.0 0.00 0.00 0.00 61 1020.7
20260902173321 84 50 6.0 12.0 0.00 0.00 0.00 61 1020.8
20260902172823 83 47 5.0 12.0 0.00 0.00 0.00 61 1020.8
20260902172338 84 360 5.0 10.0 0.00 0.00 0.00 61 1020.8
20260902171818 84 314 5.0 10.0 0.00 0.00 0.00 60 1020.9
20260902171340 84 73 3.0 10.0 0.00 0.00 0.00 61 1020.8
20260902170815 84 36 3.0 11.0 0.00 0.00 0.00 60 1020.9
20260902170332 84 66 4.0 12.0 0.00 0.00 0.00 60 1020.9
20260902165830 83 360 4.0 12.0 0.00 0.00 0.00 61 1020.8
20260902165326 83 48 4.0 9.0 0.00 0.00 0.00 61 1020.9
20260902164826 83 355 2.0 12.0 0.00 0.00 0.00 62 1021.0
20260902164334 82 72 7.0 12.0 0.00 0.00 0.00 62 1020.8
20260902163821 82 246 1.0 4.0 0.00 0.00 0.00 64 1020.9
20260902163316 82 360 2.0 3.0 0.00 0.00 0.00 64 1021.1